Location: ?????
(55.8833°N, 37.6500°E)
Time: 06:11:28
(UTC+00:00)

Cosmos 1634 Rocket - Pass Details

Date: 27 February 2020
Orbit: 959 x 993 km, 82.9° (Epoch: 28 March)

Event Time Altitude Azimuth Distance (km) Brightness Sun altitude
Rises 17:07:41 0° 168° (SSE) 3,695 6.8 -18.8°
Reaches altitude 10° 17:10:15 10° 164° (SSE) 2,752 6.1 -19.2°
Maximum altitude 17:16:18 50° 91° (E) 1,253 4.1 -20.0°
Drops below altitude 10° 17:22:23 10° 18° (NNE) 2,768 6.3 -20.8°
Sets 17:24:59 0° 14° (NNE) 3,718 7.1 -21.2°
